EW8214 Weather Reports


time (UTC)temp
C
wind
direction
speed
KPH
gust
KPH
rain 1hr
cm
rain 24hr
cm
rain mn
cm
humidity
%
barometer
mb
20260503224559 18 248 1.6 11.3 0.00 0.00 0.00 61 1012.0
20260503224501 18 263 1.6 11.3 0.00 0.00 0.00 61 1011.9
20260503223058 18 257 1.6 8.0 0.00 0.00 0.00 59 1011.9
20260503221557 18 258 1.6 12.9 0.00 0.00 0.00 61 1012.0
20260503214558 18 277 1.6 8.0 0.00 0.00 0.00 62 1012.1
20260503213123 17 272 1.6 12.9 0.00 0.00 0.00 67 1012.3
20260503211618 18 241 3.2 14.5 0.00 0.00 0.00 63 1012.2
20260503210051 17 240 3.2 11.3 0.00 0.00 0.00 63 1012.2
20260503204651 18 244 3.2 12.9 0.00 0.00 0.00 64 1012.3
20260503203049 18 261 1.6 16.1 0.00 0.00 0.00 64 1012.5
20260503201549 17 282 1.6 12.9 0.00 0.00 0.00 63 1012.5
20260503200048 17 252 1.6 16.1 0.00 0.00 0.00 63 1012.6
20260503194546 18 304 1.6 14.5 0.00 0.00 0.00 61 1012.7
20260503193046 18 252 3.2 14.5 0.00 0.00 0.00 61 1012.7
20260503191559 18 243 1.6 11.3 0.00 0.00 0.00 59 1012.6
20260503190045 18 300 1.6 8.0 0.00 0.00 0.00 56 1012.7
20260503184548 18 250 0.0 6.4 0.00 0.00 0.00 59 1012.8
20260503183043 17 285 0.0 4.8 0.00 0.00 0.00 63 1012.9
20260503181533 16 255 0.0 6.4 0.00 0.00 0.00 64 1013.1
20260503180034 16 297 0.0 4.8 0.00 0.00 0.00 66 1013.1
20260503174537 15 302 0.0 6.4 0.00 0.00 0.00 68 1013.1
20260503173026 15 302 0.0 4.8 0.00 0.00 0.00 70 1013.1
20260503171528 15 250 0.0 4.8 0.00 0.00 0.00 75 1013.0
20260503081553 13 249 0.0 1.6 0.00 0.00 0.00 89 1011.4
20260503071556 12 253 0.0 3.2 0.00 0.00 0.00 89 1011.4
20260503054535 12 253 0.0 1.6 0.00 0.00 0.00 93 1010.8
20260503053028 12 253 0.0 0.0 0.00 0.00 0.00 93 1010.8
20260503051541 11 253 0.0 0.0 0.00 0.00 0.00 92 1010.8
20260503050026 12 253 0.0 0.0 0.00 0.00 0.00 90 1010.7
20260503044526 12 253 0.0 1.6 0.00 0.00 0.00 91 1010.5
20260503043025 12 253 0.0 0.0 0.00 0.00 0.00 90 1010.4
20260503041530 12 253 0.0 0.0 0.00 0.00 0.00 90 1010.4
20260503040024 12 253 0.0 1.6 0.00 0.00 0.00 90 1010.4
20260503034524 12 253 0.0 4.8 0.00 0.00 0.00 90 1010.3
20260503033023 12 254 0.0 4.8 0.00 0.00 0.00 89 1010.2
20260503031529 13 252 0.0 6.4 0.00 0.00 0.00 88 1010.2
20260503030028 13 252 0.0 8.0 0.00 0.00 0.00 87 1010.0
20260503024522 13 251 0.0 6.4 0.00 0.00 0.00 86 1009.9
20260503023020 13 238 0.0 6.4 0.00 0.00 0.00 84 1009.7
20260503021519 14 255 0.0 11.3 0.00 0.00 0.00 83 1009.7
20260503020019 14 245 3.2 12.9 0.00 0.00 0.00 82 1009.8
20260503014518 15 256 0.0 11.3 0.00 0.00 0.00 81 1009.8
20260503013029 15 241 1.6 8.0 0.00 0.00 0.00 79 1009.8
20260503011516 15 261 3.2 11.3 0.00 0.00 0.00 78 1009.9
20260503010015 16 246 1.6 9.7 0.00 0.00 0.00 75 1009.9
20260503004514 17 262 0.0 11.3 0.00 0.00 0.00 74 1010.0
20260503003020 17 251 0.0 11.3 0.00 0.00 0.00 74 1010.0
20260503001513 17 309 0.0 9.7 0.00 0.00 0.00 74 1010.0
20260503000012 17 233 1.6 8.0 0.00 0.00 0.00 74 1010.0
20260502234518 17 250 3.2 11.3 0.00 0.00 0.00 74 1010.1
20260502233010 17 250 1.6 8.0 0.00 0.00 0.00 74 1010.1
20260502231507 17 249 1.6 12.9 0.00 0.00 0.00 73 1010.4
20260502230009 17 290 0.0 8.0 0.00 0.00 0.00 72 1010.5